| time (UTC) | temp F | wind direction | speed MPH | gust MPH | rain 1hr in | rain 24hr in | rain mn in | humidity % | barometer mb |
| 20260902144024 | 73 | 272 | 7.0 | 19.0 | 0.00 | 0.00 | 0.00 | 56 | 1018.1 |
| 20260902143524 | 72 | 226 | 10.0 | 20.0 | 0.00 | 0.00 | 0.00 | 56 | 1018.1 |
| 20260902142524 | 73 | 296 | 7.0 | 15.0 | 0.00 | 0.00 | 0.00 | 56 | 1018.0 |
| 20260902142025 | 73 | 260 | 7.0 | 14.0 | 0.00 | 0.00 | 0.00 | 56 | 1018.1 |
| 20260902141523 | 73 | 203 | 5.0 | 19.0 | 0.00 | 0.00 | 0.00 | 56 | 1018.0 |
| 20260902141025 | 73 | 206 | 9.0 | 19.0 | 0.00 | 0.00 | 0.00 | 55 | 1017.9 |
| 20260902140523 | 73 | 307 | 7.0 | 18.0 | 0.00 | 0.00 | 0.00 | 56 | 1018.1 |
| 20260902140022 | 74 | 296 | 10.0 | 21.0 | 0.00 | 0.00 | 0.00 | 55 | 1018.1 |
| 20260902135522 | 73 | 262 | 9.0 | 21.0 | 0.00 | 0.00 | 0.00 | 55 | 1018.3 |
| 20260902135122 | 74 | 261 | 12.0 | 21.0 | 0.00 | 0.00 | 0.00 | 53 | 1018.4 |
| 20260902134523 | 74 | 288 | 9.0 | 24.0 | 0.00 | 0.00 | 0.00 | 54 | 1018.4 |
| 20260902134020 | 73 | 316 | 9.0 | 24.0 | 0.00 | 0.00 | 0.00 | 55 | 1018.4 |
| 20260902133520 | 74 | 275 | 8.0 | 24.0 | 0.00 | 0.00 | 0.00 | 53 | 1018.4 |
| 20260902133020 | 73 | 230 | 11.0 | 24.0 | 0.00 | 0.00 | 0.00 | 56 | 1018.4 |
| 20260902132523 | 74 | 312 | 8.0 | 20.0 | 0.00 | 0.00 | 0.00 | 57 | 1018.4 |
| 20260902132019 | 73 | 346 | 10.0 | 20.0 | 0.00 | 0.00 | 0.00 | 58 | 1018.4 |
| 20260902131535 | 72 | 307 | 8.0 | 25.0 | 0.00 | 0.00 | 0.00 | 60 | 1018.5 |
| 20260902131019 | 73 | 322 | 10.0 | 25.0 | 0.00 | 0.00 | 0.00 | 58 | 1018.5 |
| 20260902130518 | 74 | 276 | 12.0 | 19.0 | 0.00 | 0.00 | 0.00 | 57 | 1018.5 |
| 20260902130019 | 73 | 288 | 7.0 | 19.0 | 0.00 | 0.00 | 0.00 | 58 | 1018.5 |
| 20260902125522 | 73 | 280 | 11.0 | 23.0 | 0.00 | 0.00 | 0.00 | 58 | 1018.5 |
| 20260902125017 | 73 | 218 | 12.0 | 25.0 | 0.00 | 0.00 | 0.00 | 56 | 1018.5 |
| 20260902124517 | 73 | 272 | 12.0 | 25.0 | 0.00 | 0.00 | 0.00 | 57 | 1018.5 |
| 20260902124016 | 73 | 214 | 6.0 | 21.0 | 0.00 | 0.00 | 0.00 | 60 | 1018.6 |
| 20260902123515 | 73 | 221 | 8.0 | 21.0 | 0.00 | 0.00 | 0.00 | 59 | 1018.6 |
| 20260902123014 | 73 | 277 | 8.0 | 23.0 | 0.00 | 0.00 | 0.00 | 59 | 1018.8 |
| 20260902122516 | 72 | 275 | 12.0 | 24.0 | 0.00 | 0.00 | 0.00 | 59 | 1018.8 |
| 20260902122013 | 73 | 144 | 12.0 | 24.0 | 0.00 | 0.00 | 0.00 | 60 | 1018.8 |
| 20260902121513 | 71 | 239 | 11.0 | 24.0 | 0.00 | 0.00 | 0.00 | 62 | 1018.8 |
| 20260902121012 | 73 | 238 | 8.0 | 21.0 | 0.00 | 0.00 | 0.00 | 60 | 1018.8 |
| 20260902120512 | 72 | 233 | 8.0 | 20.0 | 0.00 | 0.00 | 0.00 | 63 | 1018.9 |
| 20260902120011 | 72 | 249 | 10.0 | 20.0 | 0.00 | 0.00 | 0.00 | 63 | 1018.9 |
| 20260902115514 | 72 | 257 | 11.0 | 23.0 | 0.00 | 0.00 | 0.00 | 63 | 1018.9 |
| 20260902115012 | 72 | 293 | 10.0 | 23.0 | 0.00 | 0.00 | 0.00 | 63 | 1018.9 |
| 20260902114513 | 72 | 298 | 10.0 | 16.0 | 0.00 | 0.00 | 0.00 | 64 | 1018.9 |
| 20260902114009 | 71 | 280 | 6.0 | 15.0 | 0.00 | 0.00 | 0.00 | 66 | 1019.0 |
| 20260902113610 | 71 | 296 | 9.0 | 22.0 | 0.00 | 0.00 | 0.00 | 64 | 1019.0 |
| 20260902113008 | 71 | 299 | 10.0 | 24.0 | 0.00 | 0.00 | 0.00 | 65 | 1019.0 |
| 20260902112610 | 71 | 296 | 9.0 | 24.0 | 0.00 | 0.00 | 0.00 | 65 | 1019.0 |
| 20260902112009 | 71 | 203 | 10.0 | 17.0 | 0.00 | 0.00 | 0.00 | 65 | 1019.0 |
| 20260902111507 | 70 | 269 | 7.0 | 16.0 | 0.00 | 0.00 | 0.00 | 66 | 1019.1 |
| 20260902111007 | 69 | 307 | 7.0 | 16.0 | 0.00 | 0.00 | 0.00 | 68 | 1019.1 |
| 20260902110507 | 69 | 307 | 9.0 | 16.0 | 0.00 | 0.00 | 0.00 | 68 | 1019.0 |
| 20260902110008 | 69 | 309 | 3.0 | 13.0 | 0.00 | 0.00 | 0.00 | 68 | 1019.1 |
| 20260902105507 | 69 | 327 | 3.0 | 17.0 | 0.00 | 0.00 | 0.00 | 68 | 1019.1 |
| 20260902105006 | 69 | 296 | 7.0 | 18.0 | 0.00 | 0.00 | 0.00 | 68 | 1019.2 |
| 20260902104505 | 68 | 254 | 11.0 | 18.0 | 0.00 | 0.00 | 0.00 | 68 | 1019.2 |
| 20260902104005 | 67 | 311 | 8.0 | 15.0 | 0.00 | 0.00 | 0.00 | 70 | 1019.1 |
| 20260902103504 | 67 | 323 | 6.0 | 15.0 | 0.00 | 0.00 | 0.00 | 70 | 1019.2 |
| 20260902103006 | 68 | 296 | 8.0 | 16.0 | 0.00 | 0.00 | 0.00 | 70 | 1019.2 |
| 20260902102504 | 68 | 340 | 8.0 | 16.0 | 0.00 | 0.00 | 0.00 | 70 | 1019.2 |
| 20260902101504 | 68 | 306 | 10.0 | 22.0 | 0.00 | 0.00 | 0.00 | 69 | 1019.2 |
| 20260902101003 | 68 | 295 | 11.0 | 22.0 | 0.00 | 0.00 | 0.00 | 68 | 1019.3 |
| 20260902100504 | 69 | 316 | 11.0 | 19.0 | 0.00 | 0.00 | 0.00 | 67 | 1019.3 |
| 20260902100003 | 70 | 274 | 7.0 | 17.0 | 0.00 | 0.00 | 0.00 | 67 | 1019.2 |
| 20260902095502 | 70 | 267 | 9.0 | 17.0 | 0.00 | 0.00 | 0.00 | 66 | 1019.2 |
| 20260902095002 | 69 | 212 | 7.0 | 16.0 | 0.00 | 0.00 | 0.00 | 69 | 1019.2 |
| 20260902094501 | 68 | 300 | 8.0 | 18.0 | 0.00 | 0.00 | 0.00 | 69 | 1019.3 |
| 20260902094101 | 68 | 336 | 8.0 | 18.0 | 0.00 | 0.00 | 0.00 | 70 | 1019.3 |
| 20260902093605 | 68 | 271 | 9.0 | 18.0 | 0.00 | 0.00 | 0.00 | 71 | 1019.3 |
| 20260902093105 | 69 | 313 | 7.0 | 16.0 | 0.00 | 0.00 | 0.00 | 69 | 1019.3 |
| 20260902092600 | 70 | 311 | 9.0 | 16.0 | 0.00 | 0.00 | 0.00 | 67 | 1019.3 |
| 20260902092103 | 70 | 316 | 6.0 | 15.0 | 0.00 | 0.00 | 0.00 | 69 | 1019.2 |
| 20260902091600 | 71 | 260 | 2.0 | 13.0 | 0.00 | 0.00 | 0.00 | 67 | 1019.3 |
| 20260902091058 | 70 | 284 | 6.0 | 17.0 | 0.00 | 0.00 | 0.00 | 67 | 1019.3 |
| 20260902090557 | 70 | 308 | 7.0 | 17.0 | 0.00 | 0.00 | 0.00 | 66 | 1019.3 |
| 20260902090109 | 69 | 275 | 9.0 | 20.0 | 0.00 | 0.00 | 0.00 | 69 | 1019.3 |
| 20260902085557 | 70 | 251 | 8.0 | 20.0 | 0.00 | 0.00 | 0.00 | 68 | 1019.3 |
| 20260902085055 | 70 | 355 | 7.0 | 18.0 | 0.00 | 0.00 | 0.00 | 67 | 1019.3 |
| 20260902084558 | 70 | 350 | 6.0 | 16.0 | 0.00 | 0.00 | 0.00 | 67 | 1019.2 |
| 20260902084053 | 70 | 288 | 5.0 | 16.0 | 0.00 | 0.00 | 0.00 | 69 | 1019.2 |
| 20260902083552 | 69 | 265 | 3.0 | 17.0 | 0.00 | 0.00 | 0.00 | 71 | 1019.2 |
| 20260902083051 | 68 | 261 | 7.0 | 17.0 | 0.00 | 0.00 | 0.00 | 72 | 1019.2 |
| 20260902082553 | 68 | 275 | 8.0 | 15.0 | 0.00 | 0.00 | 0.00 | 72 | 1019.2 |
| 20260902082050 | 67 | 291 | 8.0 | 17.0 | 0.00 | 0.00 | 0.00 | 74 | 1019.2 |
| 20260902081548 | 68 | 292 | 5.0 | 17.0 | 0.00 | 0.00 | 0.00 | 74 | 1019.1 |
| 20260902081049 | 67 | 241 | 7.0 | 18.0 | 0.00 | 0.00 | 0.00 | 74 | 1019.1 |
| 20260902080551 | 67 | 267 | 9.0 | 18.0 | 0.00 | 0.00 | 0.00 | 75 | 1019.2 |
| 20260902080048 | 67 | 200 | 6.0 | 16.0 | 0.00 | 0.00 | 0.00 | 74 | 1019.1 |
| 20260902075546 | 67 | 287 | 3.0 | 16.0 | 0.00 | 0.00 | 0.00 | 75 | 1019.1 |
| 20260902075046 | 67 | 236 | 3.0 | 10.0 | 0.00 | 0.00 | 0.00 | 77 | 1019.1 |
| 20260902074556 | 66 | 292 | 8.0 | 11.0 | 0.00 | 0.00 | 0.00 | 75 | 1019.1 |
| 20260902074045 | 67 | 309 | 4.0 | 11.0 | 0.00 | 0.00 | 0.00 | 77 | 1019.1 |
| 20260902073542 | 66 | 327 | 4.0 | 12.0 | 0.00 | 0.00 | 0.00 | 78 | 1019.1 |
| 20260902073042 | 66 | 297 | 3.0 | 12.0 | 0.00 | 0.00 | 0.00 | 79 | 1019.0 |
| 20260902072543 | 66 | 261 | 2.0 | 13.0 | 0.00 | 0.00 | 0.00 | 80 | 1019.0 |
| 20260902072039 | 65 | 257 | 1.0 | 13.0 | 0.00 | 0.00 | 0.00 | 81 | 1019.0 |
| 20260902071638 | 64 | 223 | 0.0 | 14.0 | 0.00 | 0.00 | 0.00 | 82 | 1018.9 |
| 20260902071038 | 64 | 292 | 5.0 | 14.0 | 0.00 | 0.00 | 0.00 | 83 | 1019.0 |
| 20260902070538 | 64 | 284 | 4.0 | 11.0 | 0.00 | 0.00 | 0.00 | 82 | 1018.9 |
| 20260902070036 | 64 | 272 | 1.0 | 13.0 | 0.00 | 0.00 | 0.00 | 84 | 1018.9 |
| 20260902065535 | 62 | 248 | 6.0 | 13.0 | 0.00 | 0.00 | 0.00 | 84 | 1018.9 |
| 20260902065034 | 62 | 288 | 4.0 | 9.0 | 0.00 | 0.00 | 0.00 | 84 | 1018.9 |
| 20260902064537 | 62 | 241 | 5.0 | 12.0 | 0.00 | 0.00 | 0.00 | 85 | 1018.8 |
| 20260902064032 | 62 | 267 | 6.0 | 11.0 | 0.00 | 0.00 | 0.00 | 86 | 1018.8 |
| 20260902063529 | 61 | 281 | 3.0 | 12.0 | 0.00 | 0.00 | 0.00 | 86 | 1018.8 |
| 20260902063033 | 61 | 277 | 6.0 | 12.0 | 0.00 | 0.00 | 0.00 | 86 | 1018.7 |
| 20260902062529 | 61 | 278 | 6.0 | 13.0 | 0.00 | 0.00 | 0.00 | 87 | 1018.7 |
| 20260902062029 | 61 | 319 | 6.0 | 15.0 | 0.00 | 0.00 | 0.00 | 87 | 1018.7 |
| 20260902061545 | 60 | 297 | 3.0 | 15.0 | 0.00 | 0.00 | 0.00 | 88 | 1018.6 |
| 20260902061026 | 60 | 268 | 5.0 | 13.0 | 0.00 | 0.00 | 0.00 | 88 | 1018.7 |
| 20260902060523 | 60 | 259 | 0.0 | 0.0 | 0.00 | 0.00 | 0.00 | 90 | 1018.8 |
| 20260902060025 | 59 | 251 | 0.0 | 0.0 | 0.00 | 0.00 | 0.00 | 89 | 1018.7 |
| 20260902055521 | 59 | 259 | 0.0 | 0.0 | 0.00 | 0.00 | 0.00 | 90 | 1018.7 |
| 20260902055021 | 59 | 250 | 0.0 | 0.0 | 0.00 | 0.00 | 0.00 | 90 | 1018.6 |
| 20260902054519 | 58 | 213 | 0.0 | 0.0 | 0.00 | 0.00 | 0.00 | 91 | 1018.6 |
| 20260902054019 | 58 | 263 | 0.0 | 9.0 | 0.00 | 0.00 | 0.00 | 91 | 1018.6 |
| 20260902053519 | 58 | 259 | 4.0 | 9.0 | 0.00 | 0.00 | 0.00 | 92 | 1018.5 |
| 20260902053024 | 58 | 254 | 0.0 | 9.0 | 0.00 | 0.00 | 0.00 | 92 | 1018.4 |
| 20260902052517 | 57 | 234 | 1.0 | 9.0 | 0.00 | 0.00 | 0.00 | 93 | 1018.5 |
| 20260902052016 | 57 | 232 | 0.0 | 0.0 | 0.00 | 0.00 | 0.00 | 93 | 1018.6 |
| 20260902051516 | 56 | 225 | 0.0 | 0.0 | 0.00 | 0.00 | 0.00 | 93 | 1018.5 |
| 20260902051115 | 56 | 225 | 0.0 | 0.0 | 0.00 | 0.00 | 0.00 | 93 | 1018.4 |
| 20260902050514 | 56 | 225 | 0.0 | 0.0 | 0.00 | 0.00 | 0.00 | 93 | 1018.3 |
| 20260902050014 | 56 | 225 | 0.0 | 0.0 | 0.00 | 0.00 | 0.00 | 93 | 1018.2 |
| 20260902045513 | 56 | 225 | 0.0 | 0.0 | 0.00 | 0.00 | 0.00 | 93 | 1018.2 |
| 20260902045011 | 56 | 225 | 0.0 | 0.0 | 0.00 | 0.00 | 0.00 | 93 | 1018.2 |
| 20260902044510 | 56 | 225 | 0.0 | 0.0 | 0.00 | 0.00 | 0.00 | 93 | 1018.2 |
| 20260902044013 | 55 | 225 | 0.0 | 0.0 | 0.00 | 0.00 | 0.00 | 93 | 1018.2 |
| 20260902043509 | 55 | 225 | 0.0 | 0.0 | 0.00 | 0.00 | 0.00 | 93 | 1018.1 |
| 20260902043010 | 55 | 225 | 0.0 | 0.0 | 0.00 | 0.00 | 0.00 | 93 | 1018.1 |
| 20260902042510 | 55 | 225 | 0.0 | 0.0 | 0.00 | 0.00 | 0.00 | 93 | 1018.0 |
| 20260902042009 | 55 | 225 | 0.0 | 0.0 | 0.00 | 0.00 | 0.00 | 93 | 1018.0 |
| 20260902041508 | 55 | 225 | 0.0 | 0.0 | 0.00 | 0.00 | 0.00 | 94 | 1017.9 |
| 20260902041006 | 55 | 225 | 0.0 | 0.0 | 0.00 | 0.00 | 0.00 | 93 | 1017.9 |
| 20260902040507 | 55 | 225 | 0.0 | 0.0 | 0.00 | 0.00 | 0.00 | 93 | 1017.9 |
| 20260902040007 | 55 | 225 | 0.0 | 0.0 | 0.00 | 0.00 | 0.00 | 93 | 1017.9 |
| 20260902035506 | 55 | 229 | 0.0 | 0.0 | 0.00 | 0.00 | 0.00 | 93 | 1017.9 |
| 20260902035006 | 54 | 234 | 0.0 | 0.0 | 0.00 | 0.00 | 0.00 | 94 | 1018.0 |
| 20260902034506 | 54 | 234 | 0.0 | 0.0 | 0.00 | 0.00 | 0.00 | 93 | 1017.9 |
| 20260902034006 | 54 | 234 | 0.0 | 0.0 | 0.00 | 0.00 | 0.00 | 93 | 1017.9 |
| 20260902033505 | 54 | 234 | 0.0 | 0.0 | 0.00 | 0.00 | 0.00 | 93 | 1017.9 |
| 20260902033006 | 54 | 234 | 0.0 | 0.0 | 0.00 | 0.00 | 0.00 | 93 | 1017.9 |
| 20260902032506 | 54 | 233 | 0.0 | 0.0 | 0.00 | 0.00 | 0.00 | 93 | 1017.9 |
| 20260902032005 | 54 | 234 | 0.0 | 0.0 | 0.00 | 0.00 | 0.00 | 93 | 1017.9 |
| 20260902031506 | 54 | 234 | 0.0 | 0.0 | 0.00 | 0.00 | 0.00 | 93 | 1018.1 |
| 20260902031004 | 54 | 234 | 0.0 | 0.0 | 0.00 | 0.00 | 0.00 | 93 | 1018.1 |
| 20260902030004 | 54 | 234 | 0.0 | 0.0 | 0.00 | 0.00 | 0.00 | 93 | 1018.1 |
| 20260902025504 | 54 | 234 | 0.0 | 0.0 | 0.00 | 0.00 | 0.00 | 93 | 1018.1 |
| 20260902025004 | 54 | 234 | 0.0 | 0.0 | 0.00 | 0.00 | 0.00 | 93 | 1018.1 |
| 20260902024503 | 54 | 234 | 0.0 | 0.0 | 0.00 | 0.00 | 0.00 | 93 | 1018.1 |
| 20260902024003 | 54 | 234 | 0.0 | 0.0 | 0.00 | 0.00 | 0.00 | 93 | 1018.1 |
| 20260902023503 | 54 | 234 | 0.0 | 0.0 | 0.00 | 0.00 | 0.00 | 93 | 1018.2 |
| 20260902023003 | 54 | 234 | 0.0 | 0.0 | 0.00 | 0.00 | 0.00 | 93 | 1018.1 |
| 20260902022503 | 54 | 234 | 0.0 | 0.0 | 0.00 | 0.00 | 0.00 | 93 | 1018.2 |
| 20260902022002 | 54 | 234 | 0.0 | 0.0 | 0.00 | 0.00 | 0.00 | 93 | 1018.1 |
| 20260902021502 | 54 | 234 | 0.0 | 0.0 | 0.00 | 0.00 | 0.00 | 93 | 1018.1 |
| 20260902021002 | 54 | 234 | 0.0 | 0.0 | 0.00 | 0.00 | 0.00 | 93 | 1018.2 |
| 20260902020502 | 54 | 234 | 0.0 | 0.0 | 0.00 | 0.00 | 0.00 | 93 | 1018.2 |
| 20260902020002 | 54 | 234 | 0.0 | 0.0 | 0.00 | 0.01 | 0.00 | 93 | 1018.2 |
| 20260902015502 | 54 | 234 | 0.0 | 0.0 | 0.00 | 0.01 | 0.00 | 93 | 1018.2 |
| 20260902015001 | 54 | 234 | 0.0 | 0.0 | 0.00 | 0.01 | 0.00 | 93 | 1018.2 |
| 20260902014504 | 54 | 234 | 0.0 | 0.0 | 0.00 | 0.01 | 0.00 | 93 | 1018.3 |
| 20260902014000 | 53 | 234 | 0.0 | 0.0 | 0.00 | 0.01 | 0.00 | 93 | 1018.2 |
| 20260902013601 | 53 | 234 | 0.0 | 0.0 | 0.00 | 0.01 | 0.00 | 92 | 1018.2 |
| 20260902013106 | 53 | 234 | 0.0 | 0.0 | 0.00 | 0.01 | 0.00 | 92 | 1018.2 |
| 20260902012602 | 53 | 234 | 0.0 | 0.0 | 0.00 | 0.01 | 0.00 | 92 | 1018.1 |
| 20260902012059 | 53 | 234 | 0.0 | 0.0 | 0.00 | 0.01 | 0.00 | 92 | 1018.1 |
| 20260902011559 | 53 | 234 | 0.0 | 0.0 | 0.00 | 0.01 | 0.00 | 92 | 1018.1 |
| 20260902011058 | 54 | 234 | 0.0 | 0.0 | 0.00 | 0.01 | 0.00 | 92 | 1018.1 |
| 20260902010557 | 54 | 234 | 0.0 | 0.0 | 0.00 | 0.01 | 0.00 | 92 | 1018.1 |
| 20260902005556 | 54 | 234 | 0.0 | 0.0 | 0.00 | 0.01 | 0.00 | 92 | 1018.2 |
| 20260902005056 | 54 | 234 | 0.0 | 0.0 | 0.00 | 0.01 | 0.00 | 92 | 1018.1 |
| 20260902004556 | 54 | 234 | 0.0 | 0.0 | 0.00 | 0.01 | 0.00 | 92 | 1018.1 |
| 20260902004055 | 54 | 234 | 0.0 | 0.0 | 0.00 | 0.01 | 0.00 | 91 | 1017.9 |
| 20260902003555 | 54 | 234 | 0.0 | 0.0 | 0.00 | 0.01 | 0.00 | 91 | 1018.0 |
| 20260902003055 | 54 | 234 | 0.0 | 0.0 | 0.00 | 0.01 | 0.00 | 91 | 1017.9 |
| 20260902002553 | 54 | 234 | 0.0 | 0.0 | 0.00 | 0.01 | 0.00 | 91 | 1017.9 |
| 20260902002053 | 54 | 234 | 0.0 | 0.0 | 0.00 | 0.01 | 0.00 | 91 | 1017.9 |
| 20260902001610 | 54 | 234 | 0.0 | 0.0 | 0.00 | 0.01 | 0.00 | 91 | 1017.9 |
| 20260902001055 | 55 | 234 | 0.0 | 0.0 | 0.00 | 0.01 | 0.00 | 91 | 1017.8 |
| 20260902000551 | 55 | 234 | 0.0 | 0.0 | 0.00 | 0.01 | 0.00 | 91 | 1017.9 |
| 20260902000053 | 55 | 234 | 0.0 | 0.0 | 0.00 | 0.01 | 0.00 | 90 | 1017.9 |
| 20260901235551 | 55 | 234 | 0.0 | 0.0 | 0.00 | 0.01 | 0.00 | 90 | 1017.8 |
| 20260901235050 | 55 | 234 | 0.0 | 0.0 | 0.00 | 0.01 | 0.00 | 90 | 1017.8 |
| 20260901234549 | 55 | 234 | 0.0 | 0.0 | 0.00 | 0.01 | 0.00 | 90 | 1017.8 |
| 20260901234049 | 55 | 234 | 0.0 | 0.0 | 0.00 | 0.01 | 0.00 | 90 | 1017.8 |
| 20260901233548 | 56 | 234 | 0.0 | 0.0 | 0.00 | 0.01 | 0.00 | 90 | 1017.7 |
| 20260901233049 | 56 | 234 | 0.0 | 0.0 | 0.00 | 0.01 | 0.00 | 90 | 1017.8 |
| 20260901232547 | 56 | 234 | 0.0 | 0.0 | 0.00 | 0.01 | 0.00 | 90 | 1017.8 |
| 20260901232047 | 56 | 234 | 0.0 | 0.0 | 0.00 | 0.01 | 0.00 | 90 | 1017.7 |
| 20260901231546 | 56 | 234 | 0.0 | 0.0 | 0.00 | 0.01 | 0.00 | 89 | 1017.8 |
| 20260901231046 | 56 | 234 | 0.0 | 0.0 | 0.00 | 0.01 | 0.00 | 89 | 1017.7 |
| 20260901230545 | 56 | 234 | 0.0 | 0.0 | 0.00 | 0.01 | 0.00 | 89 | 1017.8 |
| 20260901230045 | 56 | 234 | 0.0 | 0.0 | 0.00 | 0.01 | 0.00 | 89 | 1017.8 |
| 20260901225043 | 57 | 234 | 0.0 | 0.0 | 0.00 | 0.01 | 0.00 | 88 | 1017.8 |
| 20260901224544 | 57 | 234 | 0.0 | 0.0 | 0.00 | 0.01 | 0.00 | 87 | 1017.8 |
| 20260901224041 | 57 | 234 | 0.0 | 0.0 | 0.00 | 0.01 | 0.00 | 87 | 1017.8 |
| 20260901223541 | 57 | 234 | 0.0 | 0.0 | 0.00 | 0.01 | 0.00 | 86 | 1017.8 |
| 20260901223047 | 58 | 234 | 0.0 | 0.0 | 0.00 | 0.01 | 0.00 | 86 | 1017.8 |
| 20260901222540 | 58 | 234 | 0.0 | 0.0 | 0.00 | 0.01 | 0.00 | 86 | 1017.8 |
| 20260901222040 | 58 | 234 | 0.0 | 0.0 | 0.00 | 0.01 | 0.00 | 86 | 1017.8 |
| 20260901221554 | 58 | 234 | 0.0 | 0.0 | 0.00 | 0.01 | 0.00 | 86 | 1017.8 |
| 20260901221037 | 59 | 234 | 0.0 | 0.0 | 0.00 | 0.01 | 0.00 | 85 | 1017.8 |
| 20260901220535 | 59 | 234 | 0.0 | 0.0 | 0.00 | 0.01 | 0.00 | 85 | 1017.8 |
| 20260901220036 | 59 | 234 | 0.0 | 0.0 | 0.00 | 0.01 | 0.01 | 85 | 1017.8 |
| 20260901215534 | 59 | 234 | 0.0 | 0.0 | 0.00 | 0.01 | 0.01 | 85 | 1017.8 |
| 20260901215035 | 59 | 234 | 0.0 | 0.0 | 0.00 | 0.01 | 0.01 | 85 | 1017.8 |
| 20260901214534 | 59 | 234 | 0.0 | 0.0 | 0.00 | 0.01 | 0.01 | 85 | 1017.7 |
| 20260901214034 | 60 | 234 | 0.0 | 0.0 | 0.00 | 0.01 | 0.01 | 85 | 1017.7 |
| 20260901213536 | 60 | 234 | 0.0 | 0.0 | 0.00 | 0.01 | 0.01 | 85 | 1017.8 |
| 20260901213033 | 60 | 234 | 0.0 | 0.0 | 0.00 | 0.01 | 0.01 | 85 | 1017.8 |
| 20260901212535 | 60 | 234 | 0.0 | 0.0 | 0.00 | 0.01 | 0.01 | 85 | 1017.8 |
| 20260901212034 | 60 | 234 | 0.0 | 0.0 | 0.00 | 0.01 | 0.01 | 85 | 1017.8 |
| 20260901211533 | 60 | 234 | 0.0 | 0.0 | 0.00 | 0.01 | 0.01 | 85 | 1017.8 |
| 20260901211035 | 60 | 234 | 0.0 | 0.0 | 0.00 | 0.01 | 0.01 | 86 | 1017.8 |
| 20260901210532 | 60 | 232 | 0.0 | 0.0 | 0.00 | 0.01 | 0.01 | 86 | 1017.7 |
| 20260901210032 | 60 | 232 | 0.0 | 0.0 | 0.00 | 0.01 | 0.01 | 85 | 1017.7 |
| 20260901205632 | 60 | 232 | 0.0 | 0.0 | 0.00 | 0.01 | 0.01 | 85 | 1017.7 |
| 20260901205037 | 60 | 232 | 0.0 | 0.0 | 0.00 | 0.01 | 0.01 | 85 | 1017.7 |
| 20260901204531 | 60 | 232 | 0.0 | 0.0 | 0.00 | 0.01 | 0.01 | 84 | 1017.7 |
| 20260901204033 | 60 | 232 | 0.0 | 0.0 | 0.00 | 0.01 | 0.01 | 84 | 1017.7 |
| 20260901203531 | 61 | 232 | 0.0 | 0.0 | 0.00 | 0.01 | 0.01 | 84 | 1017.6 |
| 20260901203031 | 61 | 232 | 0.0 | 0.0 | 0.00 | 0.01 | 0.01 | 84 | 1017.6 |
| 20260901202531 | 61 | 232 | 0.0 | 0.0 | 0.00 | 0.01 | 0.01 | 83 | 1017.6 |
| 20260901202031 | 61 | 232 | 0.0 | 0.0 | 0.00 | 0.01 | 0.01 | 83 | 1017.6 |
| 20260901201531 | 61 | 232 | 0.0 | 0.0 | 0.00 | 0.01 | 0.01 | 83 | 1017.6 |
| 20260901201033 | 61 | 232 | 0.0 | 0.0 | 0.00 | 0.01 | 0.01 | 83 | 1017.6 |
| 20260901200529 | 62 | 234 | 0.0 | 0.0 | 0.00 | 0.01 | 0.01 | 83 | 1017.7 |
| 20260901200037 | 62 | 234 | 0.0 | 0.0 | 0.00 | 0.01 | 0.01 | 83 | 1017.7 |
| 20260901195529 | 62 | 234 | 0.0 | 0.0 | 0.00 | 0.01 | 0.01 | 83 | 1017.8 |
| 20260901195132 | 62 | 234 | 0.0 | 0.0 | 0.00 | 0.01 | 0.01 | 83 | 1017.7 |
| 20260901194529 | 62 | 234 | 0.0 | 0.0 | 0.00 | 0.01 | 0.01 | 83 | 1017.8 |
| 20260901194033 | 62 | 234 | 0.0 | 0.0 | 0.00 | 0.01 | 0.01 | 82 | 1017.8 |
| 20260901193529 | 62 | 234 | 0.0 | 0.0 | 0.00 | 0.01 | 0.01 | 82 | 1017.8 |
| 20260901193028 | 62 | 234 | 0.0 | 0.0 | 0.00 | 0.01 | 0.01 | 82 | 1017.8 |
| 20260901192528 | 62 | 236 | 0.0 | 0.0 | 0.00 | 0.01 | 0.01 | 82 | 1017.8 |
| 20260901192030 | 62 | 238 | 0.0 | 0.0 | 0.00 | 0.01 | 0.01 | 82 | 1017.7 |
| 20260901191549 | 62 | 250 | 0.0 | 0.0 | 0.00 | 0.01 | 0.01 | 82 | 1017.8 |
| 20260901191027 | 62 | 266 | 0.0 | 0.0 | 0.00 | 0.01 | 0.01 | 82 | 1017.7 |
| 20260901190528 | 62 | 266 | 0.0 | 0.0 | 0.00 | 0.01 | 0.01 | 82 | 1017.8 |
| 20260901190027 | 63 | 266 | 0.0 | 0.0 | 0.00 | 0.01 | 0.01 | 81 | 1017.7 |
| 20260901185528 | 63 | 266 | 0.0 | 0.0 | 0.00 | 0.01 | 0.01 | 81 | 1017.7 |
| 20260901185027 | 63 | 266 | 0.0 | 0.0 | 0.00 | 0.01 | 0.01 | 80 | 1017.7 |
| 20260901184530 | 63 | 266 | 0.0 | 0.0 | 0.00 | 0.01 | 0.01 | 80 | 1017.7 |
| 20260901184026 | 63 | 266 | 0.0 | 0.0 | 0.00 | 0.01 | 0.01 | 80 | 1017.7 |
| 20260901183526 | 64 | 266 | 0.0 | 0.0 | 0.00 | 0.01 | 0.01 | 79 | 1017.5 |
| 20260901183024 | 64 | 266 | 0.0 | 0.0 | 0.00 | 0.01 | 0.01 | 79 | 1017.6 |
| 20260901182524 | 64 | 266 | 0.0 | 0.0 | 0.00 | 0.01 | 0.01 | 78 | 1017.5 |
| 20260901182023 | 64 | 266 | 0.0 | 0.0 | 0.00 | 0.01 | 0.01 | 78 | 1017.4 |
| 20260901181524 | 64 | 266 | 0.0 | 0.0 | 0.00 | 0.01 | 0.01 | 78 | 1017.4 |
| 20260901181023 | 65 | 266 | 0.0 | 0.0 | 0.00 | 0.01 | 0.01 | 77 | 1017.4 |
| 20260901180524 | 65 | 267 | 0.0 | 0.0 | 0.00 | 0.01 | 0.01 | 77 | 1017.3 |
| 20260901180021 | 65 | 277 | 0.0 | 0.0 | 0.00 | 0.01 | 0.01 | 77 | 1017.3 |
| 20260901175523 | 65 | 277 | 0.0 | 0.0 | 0.00 | 0.01 | 0.01 | 77 | 1017.3 |
| 20260901175025 | 65 | 277 | 0.0 | 0.0 | 0.00 | 0.01 | 0.01 | 76 | 1017.2 |
| 20260901174620 | 65 | 277 | 0.0 | 4.0 | 0.00 | 0.01 | 0.01 | 76 | 1017.2 |
| 20260901174020 | 65 | 277 | 0.0 | 7.0 | 0.00 | 0.01 | 0.01 | 76 | 1017.1 |
| 20260901173519 | 65 | 277 | 1.0 | 9.0 | 0.00 | 0.01 | 0.01 | 75 | 1017.1 |
| 20260901173024 | 65 | 280 | 1.0 | 9.0 | 0.00 | 0.01 | 0.01 | 75 | 1017.1 |
| 20260901172519 | 65 | 276 | 2.0 | 13.0 | 0.00 | 0.01 | 0.01 | 75 | 1017.0 |
| 20260901172018 | 65 | 256 | 5.0 | 11.0 | 0.00 | 0.01 | 0.01 | 74 | 1016.9 |
| 20260901171522 | 66 | 249 | 4.0 | 9.0 | 0.00 | 0.01 | 0.01 | 74 | 1016.9 |
| 20260901171116 | 66 | 253 | 2.0 | 9.0 | 0.00 | 0.01 | 0.01 | 74 | 1016.8 |
| 20260901170516 | 66 | 256 | 2.0 | 13.0 | 0.00 | 0.01 | 0.01 | 74 | 1016.8 |
| 20260901170015 | 66 | 223 | 4.0 | 13.0 | 0.00 | 0.01 | 0.01 | 73 | 1016.7 |
| 20260901165514 | 66 | 208 | 0.0 | 12.0 | 0.00 | 0.01 | 0.01 | 73 | 1016.7 |
| 20260901165014 | 66 | 254 | 5.0 | 14.0 | 0.00 | 0.01 | 0.01 | 73 | 1016.7 |
| 20260901164533 | 66 | 213 | 6.0 | 14.0 | 0.00 | 0.01 | 0.01 | 73 | 1016.6 |
| 20260901164013 | 67 | 246 | 4.0 | 13.0 | 0.00 | 0.01 | 0.01 | 72 | 1016.7 |
| 20260901163516 | 67 | 265 | 3.0 | 19.0 | 0.00 | 0.01 | 0.01 | 72 | 1016.6 |
| 20260901163013 | 67 | 263 | 7.0 | 19.0 | 0.00 | 0.01 | 0.01 | 71 | 1016.6 |
| 20260901162513 | 68 | 217 | 8.0 | 21.0 | 0.00 | 0.01 | 0.01 | 70 | 1016.6 |
| 20260901162016 | 68 | 252 | 12.0 | 21.0 | 0.00 | 0.01 | 0.01 | 70 | 1016.6 |
| 20260901161526 | 68 | 250 | 9.0 | 19.0 | 0.00 | 0.01 | 0.01 | 71 | 1016.6 |
| 20260901161012 | 68 | 202 | 8.0 | 23.0 | 0.00 | 0.01 | 0.01 | 71 | 1016.6 |
| 20260901160514 | 68 | 258 | 8.0 | 23.0 | 0.00 | 0.01 | 0.01 | 71 | 1016.5 |
| 20260901160011 | 68 | 240 | 5.0 | 14.0 | 0.00 | 0.01 | 0.01 | 72 | 1016.5 |
| 20260901155510 | 67 | 244 | 6.0 | 19.0 | 0.00 | 0.01 | 0.01 | 72 | 1016.4 |
| 20260901155011 | 67 | 279 | 7.0 | 19.0 | 0.00 | 0.01 | 0.01 | 71 | 1016.4 |
| 20260901154510 | 68 | 293 | 7.0 | 17.0 | 0.00 | 0.01 | 0.01 | 71 | 1016.4 |
| 20260901153511 | 68 | 264 | 8.0 | 20.0 | 0.00 | 0.01 | 0.01 | 71 | 1016.4 |
| 20260901153009 | 68 | 301 | 9.0 | 20.0 | 0.00 | 0.01 | 0.01 | 71 | 1016.4 |
| 20260901152508 | 67 | 299 | 5.0 | 19.0 | 0.00 | 0.01 | 0.01 | 71 | 1016.4 |
| 20260901152008 | 67 | 335 | 10.0 | 19.0 | 0.00 | 0.01 | 0.01 | 71 | 1016.3 |
| 20260901151510 | 67 | 260 | 9.0 | 22.0 | 0.00 | 0.01 | 0.01 | 71 | 1016.3 |
| 20260901151008 | 67 | 316 | 12.0 | 22.0 | 0.00 | 0.01 | 0.01 | 70 | 1016.3 |
| 20260901150509 | 68 | 286 | 10.0 | 21.0 | 0.00 | 0.01 | 0.01 | 70 | 1016.3 |
| 20260901150008 | 68 | 300 | 11.0 | 20.0 | 0.00 | 0.01 | 0.01 | 70 | 1016.2 |
| 20260901145508 | 68 | 286 | 12.0 | 21.0 | 0.00 | 0.01 | 0.01 | 70 | 1016.2 |
| 20260901145008 | 68 | 271 | 11.0 | 25.0 | 0.00 | 0.01 | 0.01 | 71 | 1016.2 |
| 20260901144507 | 68 | 227 | 13.0 | 25.0 | 0.00 | 0.01 | 0.01 | 74 | 1016.2 |